Other Surface Observations
Issued by NWS Charleston, SC

Home | Current Version | Previous Version | Text Only | Print | Product List | Glossary On
Versions: 1 2 3 4 5 6 7 8 9 10 11 12 13 14 15 16 17 18 19 20 21 22 23 24 25 26 27 28 29 30 31 32 33 34 35 36 37 38 39 40 41 42 43 44 45 46 47 48 49 50
893
SXUS52 KCHS 271827
OSOCHS

MARINE OBSERVATIONS
NATIONAL WEATHER SERVICE CHARLESTON SC
200 PM EDT THU JUL 27 2017

...DOWNTOWN CHARLESTON AND HARBOR...

CITY           SKY/WX    TMP DP  RH WIND       PRES   REMARKS
WATERFRONT PRK   N/A     84  74  72 SE6       30.00F HX  91

...LAKE MOULTRIE...

CITY           SKY/WX    TMP DP  RH WIND       PRES   REMARKS
PINOPOLIS        N/A     84  75  74 VRB2      29.94F HX  92

...LAKE AND SUPPLEMENTAL COASTAL OBSERVATIONS...

STATION/POSITION TIME  TEMP    WIND        PRES    WAVE   SWELL
                       AIR SEA DIR/SP/G            HT/PER HT/PER/DIR
                 (UTC) (F)     (DEG/KT/KT) (MB)    (FT/S) (FT/S/D)
FORT PULASKI     1800   79 84  150/  5/  7 1016.1
SAPELO ISLAND    1800   78        CALM     1016.0
WINYAH BAY       1730   84     150/  4     1016.0F
LAKE MURRAY      1820   86     220/  2/  4 1015.2
ACE BASIN NERRS  1745   85     130/  2     1017.0S


...C-MAN AND BUOY OBSERVATIONS...

STATION/POSITION TIME  TEMP    WIND        PRES    WAVE   SWELL
                       AIR SEA DIR/SP/G            HT/PER HT/PER/DIR
                 (UTC) (F)     (DEG/KT/KT) (MB)    (FT/S) (FT/S/D)
BUOY 41004       1810   80 83  270/  4/  6 1016.1
BUOY 41008       1750   78 81   60/  2/  4 1015.8F   2/ 5   2/130/ 5
FOLLY BEACH CMAN 1800   82     200/  7/  8 1017.1F
CAPERS NS BUOY   1808   81 85  210/  8/ 12 1016.3F
FRIPP NS BUOY    1808   81 84  170/ 12/ 16 1016.0F
5E ST. MARYS GA  1800      79                N/A     2/ 5


STATION/POSITION TIME  TEMP    WIND        PRES    WAVE   SWELL
                       AIR SEA DIR/SP/G            HT/PER HT/PER/DIR
                 (UTC) (F)     (DEG/KT/KT) (MB)    (FT/S) (FT/S/D)
FRYING PAN BUOY  1810   81 82  160/  4/  6 1016.3
BUOY 41025       1750   81 86  200/  6/  6 1016.9F   3/ 8   3/ 60/ 8
CAPE LOOKOUT NC  1800   83     160/  8/ 10 1016.5F
BUOY 41002       1750   82 83  310/ 10/ 12 1016.8F   3/ 7   3/ 20/ 7
BUOY 41010       1810   85 85  170/  4/  6 1017.0
ST AUGUSTINE FL  1800   79 77  150/  8/  9 1015.8F

$$




USA.gov is the U.S. government's official web portal to all federal, state and local government web resources and services.